Content
SEND FEEDBACK

Daily
Averages
Monthly
Summary
Iceland

AKUREYRI, ICELAND


Home > Europe > Iceland
Elevation: 89 feet     Latitude: 65 41N     Longitude: 018 05W

WEATHER
 
SELECT A DAY
Number of Records: 51,700;   Date Range: 1/16/01 - 11/23/14
 
SHARE

PRINT THIS DATA

[ ← Previous Day ]
WEATHER ALMANAC - FEBRUARY 13, 2013
[ Next Day → ]
[ °C ]   °F
Weather ElementAverageHighLow
Temperature32.7 °F37.4 °F (6:00 pm)24.8 °F (9:00 am)
Dewpoint28.5 °F32 °F (6:00 pm)21 °F (6:00 pm)
Humidity84.4 %100 % (7:00 am)40 % (6:00 pm)
Barometer29.50 in29.68 in (12:00 am)29.42 in (4:00 pm)
Wind Speed7.3 mph15 mph (3:00 am)
Weather ElementAverage
Visibility8.2 mi
Wind DirectionWSW (242.3 °)

Weather ElementTotal
Precipitation---
Heating Degree Days33.9 (Base 65)
Averaged from 26 records on February 13, 2013
WEATHER CONDITIONS BREAKOUT
WIND DIRECTION BREAKOUT
WEATHER BY HOUR - FEBRUARY 13, 2013
[ °C ]   °F
Local TimeTemperatureDewpointHumidityBarometerVisibilityWind DirectionWind SpeedGust SpeedPrecipitationEventsConditions
12:00 AM30.2 °F26.6 °F86 %29.68 in6.2 miNNW (340°)9.2 mphOvercast
1:00 AM30.2 °F28.4 °F93 %29.65 in6.2 miNNW (340°)8.1 mphOvercast
2:00 AM32.0 °F28.4 °F87 %29.62 in6.2 miNorth (360°)11.5 mphOvercast
3:00 AM32.0 °F28.4 °F87 %29.59 in6.2 miNNE (30°)15.0 mphMostly Cloudy
4:00 AM33.8 °F28.4 °F81 %29.56 in6.2 miNW (320°)9.2 mphMostly Cloudy
5:00 AM30.2 °F28.4 °F93 %29.53 in6.2 miSouth (180°)8.1 mphMostly Cloudy
6:00 AM28.4 °F26.6 °F93 %29.53 in6.2 miSSE (160°)6.9 mphPartly Cloudy
6:00 AM30.0 °F29.0 °F94 %29.54 in31.0 miSE (130°)2.3 mphScattered Clouds
7:00 AM26.6 °F26.6 °F100 %29.50 in6.2 miSW (220°)4.6 mphScattered Clouds
8:00 AM30.2 °F24.8 °F80 %29.50 inVariable2.3 mphClear
9:00 AM24.8 °F24.8 °F100 %29.50 inESE (110°)1.2 mphClear
10:00 AM30.2 °F26.6 °F86 %29.50 in6.2 miNW (320°)4.6 mphMostly Cloudy
11:00 AM30.2 °F26.6 °F86 %29.50 in6.2 miNNE (20°)9.2 mphSnowLight Snow
12:00 PM32.0 °F28.0 °F79 %29.51 in19.0 miWNW (290°)5.8 mphOvercast
1:00 PM33.8 °F28.4 °F81 %29.47 in6.2 miNorth (360°)6.9 mphMostly Cloudy
2:00 PM33.8 °F28.4 °F81 %29.44 in6.2 miNorth (10°)6.9 mphOvercast
3:00 PM33.8 °F30.2 °F87 %29.44 in6.2 miNorth (360°)9.2 mphMostly Cloudy
4:00 PM33.8 °F30.2 °F87 %29.42 in6.2 miNNW (340°)4.6 mphScattered Clouds
5:00 PM35.6 °F30.2 °F81 %29.42 in6.2 miNorth (360°)4.6 mphMostly Cloudy
6:00 PM37.4 °F32.0 °F81 %29.42 in6.2 miNNW (340°)5.8 mphLight Drizzle
6:00 PM37.0 °F21.0 °F40 %29.42 in16.0 miENE (60°)4.6 mphRainLight Rain
7:00 PM37.4 °F32.0 °F81 %29.42 in6.2 miNNW (340°)5.8 mphLight Drizzle
8:00 PM37.4 °F32.0 °F81 %29.42 in6.2 miNorth (360°)9.2 mphLight Drizzle
9:00 PM35.6 °F32.0 °F87 %29.44 in6.2 miNNW (330°)9.2 mphLight Drizzle
10:00 PM35.6 °F30.2 °F81 %29.44 in6.2 miNW (310°)11.5 mphOvercast
11:00 PM37.4 °F32.0 °F81 %29.47 in6.2 miNW (310°)12.7 mphOvercast
Hourly data recorded from BIAR, located miles away from Akureyri, Iceland







STORIES FROM OUR PARTNERS